NOAA 16 DEB

Satellite information

Favourite Embed

Satellite Type and Status

DEBRISIN ORBIT

Key statistics

Satellite NOAA 16 DEB at a glance.

Uptime

9000

Days in orbit

Revolutions

≈ 14.3

Per day

Orbit

SSO

Sun Synchronous Orbit

Inclination

98.7

Latest

Satellite identification and parameters

Extended collection of information and parameters for NOAA 16 DEB.

Object identification

Identified? True

Debris? True

Object name: NOAA 16 DEB

International designator: 2000-055NL

Object number (NORAD): 41536

Object ID (CCSDS): 41536

Country: UNITED STATES OF AMERICA (US)

Current information (Y/N): Y

RCS size: SMALL

Orbital parameters

Period: 100.535 minutes

Inclination: 98.7335 deg

SMA: 7162.074 km

Apoapsis: 791.306 km

Periapsis: 776.572 km

RAAN: 227.0 deg

Eccentricy: 0.0010286

Argument of periapsis: 282.3736 deg

Mean anomaly: 77.6295 deg

Mean motion: 14.32334844 rev/day

Mean motion (dot): 0.0000537 rev/day2

B* drag term: 0.0020022 1/REarth

Two-line elements (TLE)

Creation date: May 12, 2025, 6:36 a.m.

Reference frame: TEME

Reference center: EARTH

Epoch: May 12, 2025, 5:23 a.m. UTC

TLE line 0: 0 NOAA 16 DEB

TLE line 1: 1 41536U 00055NL 25132.22450962 .00005370 00000-0 20022-2 0 9995

TLE line 2: 2 41536 98.7335 227.0000 0010286 282.3736 77.6295 14.32334844481976

Live tracking on map

Real-time ground track for satellite NOAA 16 DEB.

In-orbit conjunctions

A list of the most updated potential collisions computed for object NOAA 16 DEB.

Target Orbit TCA Probability of collision Miss distance Type
IRIDIUM 33 DEB LEO 2024-11-08 14:55:49 0.000136362 409.0 (m) DEBRIS

Associated space launch

The NOAA K, L and M POES satellites begin the fifth generation of improved environmental monitoring in support of NOAA missions. The instrument payload has significant improvements and additions/deletions. The instrument changes have effected the spacecraft subsystems and data formats.

NOAA 16 DEB was lifted into orbit during the mission ‘Titan II SLV | NOAA 16’, on board a Titan II SLV space rocket.

The launch took place on Sept. 21, 2000, 10:22 a.m. from Space Launch Complex 4W.

For more information about the launch, click the button.

Launch to space Titan II SLV | NOAA 16
Titan II SLV | NOAA 16

Agency: N/A

Status: Launch Successful

Launch date: Sept. 21, 2000, 10:22 a.m. UTC

Rocket: Titan II SLV

Launch pad: Space Launch Complex 4W

Location: Vandenberg SFB, CA, USA

...

Latest news about this satellite

There are no fresh news available about this satellite. Check back as we update our databases every day.


Newsletter sign-up

Weekly statistics, charts and insights to help you stay on top of the space industry.